• Em Portugal
  • Lista de países
  • Para 7 dias
  • Temperatura da água
  • Mapas de satélite
  • Mapa do tempo
  • Widgets de tempo
  • user-avatar
    Iniciar Sessão

    Previsão horária em Sarviry

    Hoje, 16 Agosto, Quinta-feira

    Tempo Temperatura Precipitação Vento Pressão Humidade
    00:00 +17°C° 0 mm 2 m/s 745 mmHg 94%
    01:00 +17°C° 0 mm 2 m/s 745 mmHg 94%
    02:00 +16°C° 0 mm 2 m/s 745 mmHg 96%
    03:00 +16°C° 0,1 mm 2 m/s 745 mmHg 96%
    04:00 +16°C° 0,1 mm 1 m/s 746 mmHg 96%
    05:00 +16°C° 0,1 mm 1 m/s 746 mmHg 97%
    06:00 +18°C° 0,1 mm 1 m/s 746 mmHg 93%
    07:00 +19°C° 0,1 mm 1 m/s 746 mmHg 90%
    08:00 +21°C° 0,1 mm 1 m/s 747 mmHg 87%
    09:00 +21°C° 0,3 mm 2 m/s 747 mmHg 85%
    10:00 +21°C° 0,3 mm 2 m/s 747 mmHg 82%
    11:00 +23°C° 0,3 mm 2 m/s 747 mmHg 79%
    12:00 +23°C° 0,9 mm 2 m/s 747 mmHg 78%
    13:00 +24°C° 0,9 mm 2 m/s 748 mmHg 78%
    14:00 +24°C° 0,9 mm 2 m/s 748 mmHg 77%
    15:00 +24°C° 0,6 mm 2 m/s 748 mmHg 78%
    16:00 +24°C° 0,6 mm 2 m/s 748 mmHg 79%
    17:00 +23°C° 0,6 mm 2 m/s 748 mmHg 81%
    18:00 +21°C° 0,1 mm 2 m/s 748 mmHg 85%
    19:00 +19°C° 0,1 mm 2 m/s 748 mmHg 89%
    20:00 +18°C° 0,1 mm 2 m/s 748 mmHg 94%
    21:00 +17°C° 0 mm 2 m/s 748 mmHg 94%
    22:00 +17°C° 0 mm 2 m/s 749 mmHg 95%
    23:00 +16°C° 0 mm 2 m/s 749 mmHg 96%

    Amanhã, 17 Agosto, Sexta-feira

    Tempo Temperatura Precipitação Vento Pressão Humidade
    00:00 +16°C° 0 mm 2 m/s 749 mmHg 96%
    01:00 +15°C° 0 mm 2 m/s 749 mmHg 96%
    02:00 +15°C° 0 mm 2 m/s 749 mmHg 96%
    03:00 +15°C° 0 mm 2 m/s 749 mmHg 96%
    04:00 +15°C° 0 mm 2 m/s 750 mmHg 97%
    05:00 +14°C° 0 mm 2 m/s 750 mmHg 97%
    06:00 +16°C° 0 mm 2 m/s 750 mmHg 94%
    07:00 +17°C° 0 mm 3 m/s 750 mmHg 91%
    08:00 +19°C° 0 mm 3 m/s 750 mmHg 88%
    09:00 +20°C° 0 mm 3 m/s 750 mmHg 82%
    10:00 +22°C° 0 mm 3 m/s 750 mmHg 77%
    11:00 +24°C° 0 mm 3 m/s 750 mmHg 72%
    12:00 +25°C° 0 mm 3 m/s 750 mmHg 70%
    13:00 +25°C° 0 mm 3 m/s 750 mmHg 68%
    14:00 +26°C° 0 mm 4 m/s 749 mmHg 67%
    15:00 +25°C° 0,1 mm 3 m/s 749 mmHg 69%
    16:00 +25°C° 0,1 mm 3 m/s 749 mmHg 71%
    17:00 +25°C° 0,1 mm 3 m/s 749 mmHg 73%
    18:00 +22°C° 0 mm 3 m/s 749 mmHg 77%
    19:00 +21°C° 0 mm 3 m/s 749 mmHg 82%
    20:00 +19°C° 0 mm 3 m/s 749 mmHg 87%
    21:00 +18°C° 0 mm 3 m/s 749 mmHg 87%
    22:00 +18°C° 0 mm 3 m/s 749 mmHg 87%
    23:00 +17°C° 0 mm 3 m/s 749 mmHg 88%

    Depois de amanhã, 18 Agosto, Sábado

    Tempo Temperatura Precipitação Vento Pressão Humidade
    00:00 +17°C° 0 mm 3 m/s 749 mmHg 89%
    01:00 +16°C° 0 mm 3 m/s 749 mmHg 90%
    02:00 +16°C° 0 mm 3 m/s 749 mmHg 91%
    03:00 +16°C° 0 mm 3 m/s 749 mmHg 91%
    04:00 +14°C° 0 mm 3 m/s 749 mmHg 92%
    05:00 +14°C° 0 mm 3 m/s 749 mmHg 92%
    06:00 +16°C° 0 mm 3 m/s 749 mmHg 88%
    07:00 +18°C° 0 mm 3 m/s 749 mmHg 84%
    08:00 +19°C° 0 mm 4 m/s 749 mmHg 80%
    09:00 +21°C° 0 mm 4 m/s 749 mmHg 77%
    10:00 +22°C° 0 mm 4 m/s 749 mmHg 73%
    11:00 +25°C° 0 mm 4 m/s 749 mmHg 69%
    12:00 +25°C° 0,3 mm 5 m/s 749 mmHg 68%
    13:00 +26°C° 0,3 mm 5 m/s 749 mmHg 67%
    14:00 +26°C° 0,3 mm 5 m/s 749 mmHg 67%
    15:00 +25°C° 0,7 mm 4 m/s 748 mmHg 71%
    16:00 +23°C° 0,7 mm 4 m/s 748 mmHg 75%
    17:00 +24°C° 0,7 mm 3 m/s 748 mmHg 79%
    18:00 +22°C° 0,3 mm 3 m/s 748 mmHg 83%
    19:00 +21°C° 0,3 mm 3 m/s 748 mmHg 86%
    20:00 +20°C° 0,3 mm 3 m/s 748 mmHg 89%
    21:00 +19°C° 0 mm 3 m/s 748 mmHg 90%
    22:00 +19°C° 0 mm 3 m/s 748 mmHg 91%
    23:00 +18°C° 0 mm 3 m/s 748 mmHg 93%

    19 Agosto, Domingo

    Tempo Temperatura Precipitação Vento Pressão Humidade
    00:00 +18°C° 0 mm 3 m/s 748 mmHg 93%
    01:00 +18°C° 0 mm 3 m/s 748 mmHg 94%
    02:00 +17°C° 0 mm 3 m/s 748 mmHg 95%
    03:00 +17°C° 0 mm 3 m/s 747 mmHg 96%
    04:00 +17°C° 0 mm 3 m/s 747 mmHg 97%
    05:00 +17°C° 0 mm 3 m/s 747 mmHg 97%
    06:00 +18°C° 0 mm 3 m/s 747 mmHg 95%
    07:00 +19°C° 0 mm 3 m/s 747 mmHg 92%
    08:00 +20°C° 0 mm 3 m/s 747 mmHg 90%
    09:00 +21°C° 0,1 mm 3 m/s 747 mmHg 84%
    10:00 +24°C° 0,1 mm 3 m/s 747 mmHg 78%
    11:00 +25°C° 0,1 mm 3 m/s 747 mmHg 73%
    12:00 +25°C° 0,4 mm 3 m/s 747 mmHg 71%
    13:00 +26°C° 0,4 mm 3 m/s 747 mmHg 69%
    14:00 +26°C° 0,4 mm 3 m/s 747 mmHg 67%
    15:00 +26°C° 0,7 mm 2 m/s 747 mmHg 70%
    16:00 +26°C° 0,7 mm 2 m/s 747 mmHg 73%
    17:00 +26°C° 0,7 mm 2 m/s 746 mmHg 75%
    18:00 +24°C° 0,6 mm 2 m/s 746 mmHg 79%
    19:00 +21°C° 0,6 mm 2 m/s 747 mmHg 83%
    20:00 +19°C° 0,6 mm 2 m/s 747 mmHg 88%
    21:00 +19°C° 0 mm 2 m/s 747 mmHg 89%
    22:00 +19°C° 0 mm 1 m/s 747 mmHg 91%
    23:00 +19°C° 0 mm 1 m/s 747 mmHg 92%

    20 Agosto, Segunda-feira

    Tempo Temperatura Precipitação Vento Pressão Humidade
    00:00 +17°C° 0 mm 2 m/s 747 mmHg 93%
    01:00 +17°C° 0 mm 2 m/s 747 mmHg 93%
    02:00 +17°C° 0 mm 2 m/s 747 mmHg 94%
    03:00 +17°C° 0 mm 2 m/s 747 mmHg 94%
    04:00 +16°C° 0 mm 2 m/s 747 mmHg 94%
    05:00 +16°C° 0 mm 2 m/s 747 mmHg 94%
    06:00 +17°C° 0 mm 2 m/s 747 mmHg 92%
    07:00 +18°C° 0 mm 2 m/s 747 mmHg 90%
    08:00 +19°C° 0 mm 2 m/s 748 mmHg 88%
    09:00 +20°C° 0 mm 2 m/s 748 mmHg 83%
    10:00 +21°C° 0 mm 2 m/s 748 mmHg 77%
    11:00 +22°C° 0 mm 3 m/s 748 mmHg 72%
    12:00 +23°C° 0,1 mm 2 m/s 748 mmHg 70%
    13:00 +23°C° 0,1 mm 2 m/s 748 mmHg 68%
    14:00 +24°C° 0,1 mm 2 m/s 748 mmHg 67%
    15:00 +24°C° 0,1 mm 2 m/s 747 mmHg 68%
    16:00 +23°C° 0,1 mm 2 m/s 747 mmHg 69%
    17:00 +23°C° 0,1 mm 2 m/s 747 mmHg 71%
    18:00 +22°C° 0 mm 1 m/s 747 mmHg 75%
    19:00 +20°C° 0 mm 1 m/s 747 mmHg 79%
    20:00 +18°C° 0 mm 1 m/s 747 mmHg 83%
    21:00 +18°C° 0 mm 1 m/s 747 mmHg 84%
    22:00 +16°C° 0 mm 1 m/s 747 mmHg 86%
    23:00 +16°C° 0 mm 1 m/s 747 mmHg 87%

    21 Agosto, Terça-feira

    Tempo Temperatura Precipitação Vento Pressão Humidade
    00:00 +16°C° 0 mm 1 m/s 747 mmHg 88%
    01:00 +15°C° 0 mm 1 m/s 747 mmHg 90%
    02:00 +15°C° 0 mm 1 m/s 747 mmHg 91%
    03:00 +15°C° 0 mm 2 m/s 747 mmHg 92%
    04:00 +15°C° 0 mm 2 m/s 747 mmHg 93%
    05:00 +15°C° 0 mm 2 m/s 747 mmHg 94%
    06:00 +17°C° 0 mm 3 m/s 747 mmHg 90%
    07:00 +18°C° 0 mm 3 m/s 747 mmHg 86%
    08:00 +20°C° 0 mm 4 m/s 747 mmHg 82%
    09:00 +21°C° 0,1 mm 4 m/s 746 mmHg 78%
    10:00 +22°C° 0,1 mm 5 m/s 746 mmHg 75%
    11:00 +25°C° 0,1 mm 5 m/s 746 mmHg 71%
    12:00 +25°C° 0,6 mm 5 m/s 746 mmHg 70%
    13:00 +26°C° 0,6 mm 5 m/s 746 mmHg 69%
    14:00 +26°C° 0,6 mm 6 m/s 745 mmHg 69%
    15:00 +26°C° 0,4 mm 5 m/s 745 mmHg 71%
    16:00 +26°C° 0,4 mm 4 m/s 745 mmHg 73%
    17:00 +26°C° 0,4 mm 3 m/s 745 mmHg 75%
    18:00 +24°C° 0,1 mm 3 m/s 745 mmHg 79%
    19:00 +21°C° 0,1 mm 3 m/s 745 mmHg 83%
    20:00 +20°C° 0,1 mm 3 m/s 745 mmHg 87%
    21:00 +19°C° 0 mm 2 m/s 745 mmHg 89%
    22:00 +19°C° 0 mm 2 m/s 746 mmHg 91%
    23:00 +18°C° 0 mm 2 m/s 746 mmHg 93%
    Mostrar mais